Year,Month,Day,Hour,Minute,Value (Times are PST for temperature in C)
2015,02,15,00,00,5.10
2015,02,15,00,01,5.00
2015,02,15,00,02,5.00
2015,02,15,00,03,5.00
2015,02,15,00,04,5.00
2015,02,15,00,05,4.90
2015,02,15,00,06,4.90
2015,02,15,00,07,4.90
2015,02,15,00,08,4.90
2015,02,15,00,09,4.90
2015,02,15,00,10,4.90
2015,02,15,00,11,4.90
2015,02,15,00,12,4.90
2015,02,15,00,13,4.90
2015,02,15,00,14,4.80
2015,02,15,00,15,4.80
2015,02,15,00,16,4.80
2015,02,15,00,17,4.80
2015,02,15,00,18,4.80
2015,02,15,00,19,4.80
2015,02,15,00,20,4.90
2015,02,15,00,21,4.90
2015,02,15,00,22,4.90
2015,02,15,00,23,4.90
2015,02,15,00,24,5.00
2015,02,15,00,25,5.00
2015,02,15,00,26,5.00
2015,02,15,00,27,5.00
2015,02,15,00,28,5.00
2015,02,15,00,29,5.00
2015,02,15,00,30,5.00
2015,02,15,00,31,5.00
2015,02,15,00,32,5.00
2015,02,15,00,33,5.00
2015,02,15,00,34,5.10
2015,02,15,00,35,5.10
2015,02,15,00,36,5.10
2015,02,15,00,37,5.10
2015,02,15,00,38,5.00
2015,02,15,00,39,5.00
2015,02,15,00,40,5.00
2015,02,15,00,41,5.00
2015,02,15,00,42,5.00
2015,02,15,00,43,5.00
2015,02,15,00,44,5.00
2015,02,15,00,45,4.90
2015,02,15,00,46,4.90
2015,02,15,00,47,4.90
2015,02,15,00,48,4.90
2015,02,15,00,49,4.90
2015,02,15,00,50,4.80
2015,02,15,00,51,4.80
2015,02,15,00,52,4.80
2015,02,15,00,53,4.80
2015,02,15,00,54,4.80
2015,02,15,00,55,4.80
2015,02,15,00,56,4.80
2015,02,15,00,57,4.80
2015,02,15,00,58,4.80
2015,02,15,00,59,4.80
2015,02,15,01,00,4.80
2015,02,15,01,01,4.80
2015,02,15,01,02,4.80
2015,02,15,01,03,4.80
2015,02,15,01,04,4.80
2015,02,15,01,05,4.70
2015,02,15,01,06,4.70
2015,02,15,01,07,4.70
2015,02,15,01,08,4.70
2015,02,15,01,09,4.70
2015,02,15,01,10,4.70
2015,02,15,01,11,4.70
2015,02,15,01,12,4.70
2015,02,15,01,13,4.70
2015,02,15,01,14,4.70
2015,02,15,01,15,4.70
2015,02,15,01,16,4.70
2015,02,15,01,17,4.70
2015,02,15,01,18,4.60
2015,02,15,01,19,4.60
2015,02,15,01,20,4.60
2015,02,15,01,21,4.50
2015,02,15,01,22,4.50
2015,02,15,01,23,4.50
2015,02,15,01,24,4.40
2015,02,15,01,25,4.40
2015,02,15,01,26,4.40
2015,02,15,01,27,4.40
2015,02,15,01,28,4.40
2015,02,15,01,29,4.40
2015,02,15,01,30,4.40
2015,02,15,01,31,4.30
2015,02,15,01,32,4.30
2015,02,15,01,33,4.30
2015,02,15,01,34,4.30
2015,02,15,01,35,4.30
2015,02,15,01,36,4.30
2015,02,15,01,37,4.30
2015,02,15,01,38,4.30
2015,02,15,01,39,4.30
2015,02,15,01,40,4.20
2015,02,15,01,41,4.20
2015,02,15,01,42,4.20
2015,02,15,01,43,4.20
2015,02,15,01,44,4.20
2015,02,15,01,45,4.30
2015,02,15,01,46,4.30
2015,02,15,01,47,4.30
2015,02,15,01,48,4.30
2015,02,15,01,49,4.30
2015,02,15,01,50,4.20
2015,02,15,01,51,4.20
2015,02,15,01,52,4.20
2015,02,15,01,53,4.20
2015,02,15,01,54,4.10
2015,02,15,01,55,4.10
2015,02,15,01,56,4.10
2015,02,15,01,57,4.10
2015,02,15,01,58,4.10
2015,02,15,01,59,4.10
2015,02,15,02,00,4.10
2015,02,15,02,01,4.10
2015,02,15,02,02,4.10
2015,02,15,02,03,4.00
2015,02,15,02,04,4.00
2015,02,15,02,05,4.00
2015,02,15,02,06,3.90
2015,02,15,02,07,3.90
2015,02,15,02,08,3.90
2015,02,15,02,09,3.90
2015,02,15,02,10,3.90
2015,02,15,02,11,3.90
2015,02,15,02,12,3.90
2015,02,15,02,13,3.90
2015,02,15,02,14,3.90
2015,02,15,02,15,3.90
2015,02,15,02,16,3.90
2015,02,15,02,17,3.90
2015,02,15,02,18,3.90
2015,02,15,02,19,3.90
2015,02,15,02,20,3.90
2015,02,15,02,21,3.90
2015,02,15,02,22,3.90
2015,02,15,02,23,3.90
2015,02,15,02,24,3.80
2015,02,15,02,25,3.80
2015,02,15,02,26,3.80
2015,02,15,02,27,3.80
2015,02,15,02,28,3.80
2015,02,15,02,29,3.90
2015,02,15,02,30,3.90
2015,02,15,02,31,3.90
2015,02,15,02,32,3.90
2015,02,15,02,33,3.90
2015,02,15,02,34,3.90
2015,02,15,02,35,3.90
2015,02,15,02,36,3.90
2015,02,15,02,37,3.90
2015,02,15,02,38,3.90
2015,02,15,02,39,3.90
2015,02,15,02,40,3.90
2015,02,15,02,41,3.80
2015,02,15,02,42,3.80
2015,02,15,02,43,3.80
2015,02,15,02,44,3.80
2015,02,15,02,45,3.80
2015,02,15,02,46,3.80
2015,02,15,02,47,3.80
2015,02,15,02,48,3.70
2015,02,15,02,49,3.70
2015,02,15,02,50,3.70
2015,02,15,02,51,3.70
2015,02,15,02,52,3.70
2015,02,15,02,53,3.70
2015,02,15,02,54,3.70
2015,02,15,02,55,3.70
2015,02,15,02,56,3.70
2015,02,15,02,57,3.70
2015,02,15,02,58,3.70
2015,02,15,02,59,3.70
2015,02,15,03,00,3.70
2015,02,15,03,01,3.70
2015,02,15,03,02,3.70
2015,02,15,03,03,3.70
2015,02,15,03,04,3.70
2015,02,15,03,05,3.80
2015,02,15,03,06,3.80
2015,02,15,03,07,3.70
2015,02,15,03,08,3.70
2015,02,15,03,09,3.70
2015,02,15,03,10,3.70
2015,02,15,03,11,3.70
2015,02,15,03,12,3.70
2015,02,15,03,13,3.70
2015,02,15,03,14,3.70
2015,02,15,03,15,3.70
2015,02,15,03,16,3.70
2015,02,15,03,17,3.70
2015,02,15,03,18,3.70
2015,02,15,03,19,3.70
2015,02,15,03,20,3.70
2015,02,15,03,21,3.70
2015,02,15,03,22,3.70
2015,02,15,03,23,3.80
2015,02,15,03,24,3.80
2015,02,15,03,25,3.80
2015,02,15,03,26,3.80
2015,02,15,03,27,3.80
2015,02,15,03,28,3.80
2015,02,15,03,29,3.80
2015,02,15,03,30,3.80
2015,02,15,03,31,3.70
2015,02,15,03,32,3.70
2015,02,15,03,33,3.70
2015,02,15,03,34,3.60
2015,02,15,03,35,3.60
2015,02,15,03,36,3.60
2015,02,15,03,37,3.60
2015,02,15,03,38,3.50
2015,02,15,03,39,3.50
2015,02,15,03,40,3.50
2015,02,15,03,41,3.50
2015,02,15,03,42,3.50
2015,02,15,03,43,3.60
2015,02,15,03,44,3.60
2015,02,15,03,45,3.60
2015,02,15,03,46,3.60
2015,02,15,03,47,3.60
2015,02,15,03,48,3.50
2015,02,15,03,49,3.50
2015,02,15,03,50,3.50
2015,02,15,03,51,3.40
2015,02,15,03,52,3.40
2015,02,15,03,53,3.40
2015,02,15,03,54,3.40
2015,02,15,03,55,3.40
2015,02,15,03,56,3.40
2015,02,15,03,57,3.40
2015,02,15,03,58,3.40
2015,02,15,03,59,3.30
2015,02,15,04,00,3.30
2015,02,15,04,01,3.30
2015,02,15,04,02,3.30
2015,02,15,04,03,3.30
2015,02,15,04,04,3.30
2015,02,15,04,05,3.30
2015,02,15,04,06,3.30
2015,02,15,04,07,3.30
2015,02,15,04,08,3.30
2015,02,15,04,09,3.30
2015,02,15,04,10,3.30
2015,02,15,04,11,3.30
2015,02,15,04,12,3.30
2015,02,15,04,13,3.40
2015,02,15,04,14,3.60
2015,02,15,04,15,3.70
2015,02,15,04,16,3.80
2015,02,15,04,17,3.90
2015,02,15,04,18,3.90
2015,02,15,04,19,4.00
2015,02,15,04,20,4.00
2015,02,15,04,21,4.10
2015,02,15,04,22,4.10
2015,02,15,04,23,4.20
2015,02,15,04,24,4.30
2015,02,15,04,25,4.50
2015,02,15,04,26,4.60
2015,02,15,04,27,4.60
2015,02,15,04,28,4.70
2015,02,15,04,29,4.70
2015,02,15,04,30,4.80
2015,02,15,04,31,4.80
2015,02,15,04,32,4.90
2015,02,15,04,33,5.10
2015,02,15,04,34,5.20
2015,02,15,04,35,5.30
2015,02,15,04,36,5.30
2015,02,15,04,37,5.30
2015,02,15,04,38,5.30
2015,02,15,04,39,5.40
2015,02,15,04,40,5.40
2015,02,15,04,41,5.40
2015,02,15,04,42,5.50
2015,02,15,04,43,5.50
2015,02,15,04,44,5.60
2015,02,15,04,45,5.60
2015,02,15,04,46,5.60
2015,02,15,04,47,5.70
2015,02,15,04,48,5.70
2015,02,15,04,49,5.70
2015,02,15,04,50,5.70
2015,02,15,04,51,5.70
2015,02,15,04,52,5.70
2015,02,15,04,53,5.70
2015,02,15,04,54,5.70
2015,02,15,04,55,5.60
2015,02,15,04,56,5.60
2015,02,15,04,57,5.60
2015,02,15,04,58,5.60
2015,02,15,04,59,5.60
2015,02,15,05,00,5.60
2015,02,15,05,01,5.50
2015,02,15,05,02,5.40
2015,02,15,05,03,5.20
2015,02,15,05,04,5.10
2015,02,15,05,05,4.90
2015,02,15,05,06,4.80
2015,02,15,05,07,4.70
2015,02,15,05,08,4.60
2015,02,15,05,09,4.60
2015,02,15,05,10,4.50
2015,02,15,05,11,4.40
2015,02,15,05,12,4.40
2015,02,15,05,13,4.30
2015,02,15,05,14,4.30
2015,02,15,05,15,4.30
2015,02,15,05,16,4.30
2015,02,15,05,17,4.20
2015,02,15,05,18,4.20
2015,02,15,05,19,4.10
2015,02,15,05,20,4.00
2015,02,15,05,21,4.00
2015,02,15,05,22,3.90
2015,02,15,05,23,3.90
2015,02,15,05,24,3.90
2015,02,15,05,25,3.90
2015,02,15,05,26,3.80
2015,02,15,05,27,3.80
2015,02,15,05,28,3.80
2015,02,15,05,29,3.80
2015,02,15,05,30,3.80
2015,02,15,05,31,3.80
2015,02,15,05,32,3.80
2015,02,15,05,33,3.70
2015,02,15,05,34,3.70
2015,02,15,05,35,3.70
2015,02,15,05,36,3.70
2015,02,15,05,37,3.70
2015,02,15,05,38,3.70
2015,02,15,05,39,3.60
2015,02,15,05,40,3.60
2015,02,15,05,41,3.60
2015,02,15,05,42,3.60
2015,02,15,05,43,3.60
2015,02,15,05,44,3.60
2015,02,15,05,45,3.60
2015,02,15,05,46,3.50
2015,02,15,05,47,3.50
2015,02,15,05,48,3.50
2015,02,15,05,49,3.60
2015,02,15,05,50,3.60
2015,02,15,05,51,3.60
2015,02,15,05,52,3.60
2015,02,15,05,53,3.60
2015,02,15,05,54,3.60
2015,02,15,05,55,3.60
2015,02,15,05,56,3.60
2015,02,15,05,57,3.60
2015,02,15,05,58,3.60
2015,02,15,05,59,3.60
2015,02,15,06,00,3.60
2015,02,15,06,01,3.50
2015,02,15,06,02,3.50
2015,02,15,06,03,3.50
2015,02,15,06,04,3.50
2015,02,15,06,05,3.50
2015,02,15,06,06,3.50
2015,02,15,06,07,3.40
2015,02,15,06,08,3.40
2015,02,15,06,09,3.40
2015,02,15,06,10,3.40
2015,02,15,06,11,3.40
2015,02,15,06,12,3.30
2015,02,15,06,13,3.30
2015,02,15,06,14,3.30
2015,02,15,06,15,3.30
2015,02,15,06,16,3.40
2015,02,15,06,17,3.40
2015,02,15,06,18,3.30
2015,02,15,06,19,3.30
2015,02,15,06,20,3.30
2015,02,15,06,21,3.30
2015,02,15,06,22,3.30
2015,02,15,06,23,3.30
2015,02,15,06,24,3.20
2015,02,15,06,25,3.20
2015,02,15,06,26,3.20
2015,02,15,06,27,3.20
2015,02,15,06,28,3.20
2015,02,15,06,29,3.20
2015,02,15,06,30,3.20
2015,02,15,06,31,3.20
2015,02,15,06,32,3.20
2015,02,15,06,33,3.20
2015,02,15,06,34,3.20
2015,02,15,06,35,3.20
2015,02,15,06,36,3.30
2015,02,15,06,37,3.40
2015,02,15,06,38,3.50
2015,02,15,06,39,3.60
2015,02,15,06,40,3.60
2015,02,15,06,41,3.70
2015,02,15,06,42,3.70
2015,02,15,06,43,3.80
2015,02,15,06,44,3.80
2015,02,15,06,45,3.80
2015,02,15,06,46,3.80
2015,02,15,06,47,3.70
2015,02,15,06,48,3.70
2015,02,15,06,49,3.70
2015,02,15,06,50,3.70
2015,02,15,06,51,3.70
2015,02,15,06,52,3.70
2015,02,15,06,53,3.70
2015,02,15,06,54,3.70
2015,02,15,06,55,3.70
2015,02,15,06,56,3.70
2015,02,15,06,57,3.70
2015,02,15,06,58,3.70
2015,02,15,06,59,3.70
2015,02,15,07,00,3.70
2015,02,15,07,01,3.60
2015,02,15,07,02,3.60
2015,02,15,07,03,3.50
2015,02,15,07,04,3.50
2015,02,15,07,05,3.50
2015,02,15,07,06,3.40
2015,02,15,07,07,3.40
2015,02,15,07,08,3.40
2015,02,15,07,09,3.40
2015,02,15,07,10,3.40
2015,02,15,07,11,3.50
2015,02,15,07,12,3.50
2015,02,15,07,13,3.40
2015,02,15,07,14,3.40
2015,02,15,07,15,3.40
2015,02,15,07,16,3.40
2015,02,15,07,17,3.40
2015,02,15,07,18,3.40
2015,02,15,07,19,3.30
2015,02,15,07,20,3.30
2015,02,15,07,21,3.30
2015,02,15,07,22,3.30
2015,02,15,07,23,3.30
2015,02,15,07,24,3.30
2015,02,15,07,25,3.30
2015,02,15,07,26,3.30
2015,02,15,07,27,3.30
2015,02,15,07,28,3.30
2015,02,15,07,29,3.30
2015,02,15,07,30,3.30
2015,02,15,07,31,3.30
2015,02,15,07,32,3.30
2015,02,15,07,33,3.30
2015,02,15,07,34,3.30
2015,02,15,07,35,3.30
2015,02,15,07,36,3.30
2015,02,15,07,37,3.30
2015,02,15,07,38,3.30
2015,02,15,07,39,3.20
2015,02,15,07,40,3.20
2015,02,15,07,41,3.20
2015,02,15,07,42,3.20
2015,02,15,07,43,3.20
2015,02,15,07,44,3.30
2015,02,15,07,45,3.30
2015,02,15,07,46,3.30
2015,02,15,07,47,3.30
2015,02,15,07,48,3.30
2015,02,15,07,49,3.30
2015,02,15,07,50,3.30
2015,02,15,07,51,3.30
2015,02,15,07,52,3.30
2015,02,15,07,53,3.30
2015,02,15,07,54,3.30
2015,02,15,07,55,3.30
2015,02,15,07,56,3.30
2015,02,15,07,57,3.30
2015,02,15,07,58,3.30
2015,02,15,07,59,3.30
2015,02,15,08,00,3.30
2015,02,15,08,01,3.30
2015,02,15,08,02,3.30
2015,02,15,08,03,3.30
2015,02,15,08,04,3.30
2015,02,15,08,05,3.40
2015,02,15,08,06,3.40
2015,02,15,08,07,3.40
2015,02,15,08,08,3.40
2015,02,15,08,09,3.50
2015,02,15,08,10,3.50
2015,02,15,08,11,3.50
2015,02,15,08,12,3.50
2015,02,15,08,13,3.50
2015,02,15,08,14,3.50
2015,02,15,08,15,3.50
2015,02,15,08,16,3.50
2015,02,15,08,17,3.50
2015,02,15,08,18,3.60
2015,02,15,08,19,3.60
2015,02,15,08,20,3.60
2015,02,15,08,21,3.60
2015,02,15,08,22,3.60
2015,02,15,08,23,3.70
2015,02,15,08,24,3.70
2015,02,15,08,25,3.80
2015,02,15,08,26,3.80
2015,02,15,08,27,3.80
2015,02,15,08,28,3.90
2015,02,15,08,29,3.90
2015,02,15,08,30,4.00
2015,02,15,08,31,4.10
2015,02,15,08,32,4.20
2015,02,15,08,33,4.20
2015,02,15,08,34,4.30
2015,02,15,08,35,4.40
2015,02,15,08,36,4.50
2015,02,15,08,37,4.60
2015,02,15,08,38,4.70
2015,02,15,08,39,4.80
2015,02,15,08,40,4.90
2015,02,15,08,41,5.00
2015,02,15,08,42,5.10
2015,02,15,08,43,5.20
2015,02,15,08,44,5.30
2015,02,15,08,45,5.40
2015,02,15,08,46,5.50
2015,02,15,08,47,5.60
2015,02,15,08,48,5.70
2015,02,15,08,49,5.80
2015,02,15,08,50,5.90
2015,02,15,08,51,5.90
2015,02,15,08,52,5.90
2015,02,15,08,53,6.00
2015,02,15,08,54,6.00
2015,02,15,08,55,6.10
2015,02,15,08,56,6.10
2015,02,15,08,57,6.20
2015,02,15,08,58,6.20
2015,02,15,08,59,6.20
2015,02,15,09,00,6.30
2015,02,15,09,01,6.30
2015,02,15,09,02,6.40
2015,02,15,09,03,6.50
2015,02,15,09,04,6.50
2015,02,15,09,05,6.60
2015,02,15,09,06,6.70
2015,02,15,09,07,6.80
2015,02,15,09,08,6.80
2015,02,15,09,09,6.90
2015,02,15,09,10,6.90
2015,02,15,09,11,7.00
2015,02,15,09,12,7.10
2015,02,15,09,13,7.20
2015,02,15,09,14,7.20
2015,02,15,09,15,7.30
2015,02,15,09,16,7.30
2015,02,15,09,17,7.40
2015,02,15,09,18,7.40
2015,02,15,09,19,7.50
2015,02,15,09,20,7.60
2015,02,15,09,21,7.60
2015,02,15,09,22,7.70
2015,02,15,09,23,7.70
2015,02,15,09,24,7.80
2015,02,15,09,25,7.80
2015,02,15,09,26,7.80
2015,02,15,09,27,7.90
2015,02,15,09,28,7.90
2015,02,15,09,29,7.90
2015,02,15,09,30,8.00
2015,02,15,09,31,8.00
2015,02,15,09,32,8.10
2015,02,15,09,33,8.10
2015,02,15,09,34,8.20
2015,02,15,09,35,8.20
2015,02,15,09,36,8.20
2015,02,15,09,37,8.30
2015,02,15,09,38,8.30
2015,02,15,09,39,8.30
2015,02,15,09,40,8.40
2015,02,15,09,41,8.40
2015,02,15,09,42,8.40
2015,02,15,09,43,8.40
2015,02,15,09,44,8.40
2015,02,15,09,45,8.50
2015,02,15,09,46,8.50
2015,02,15,09,47,8.50
2015,02,15,09,48,8.50
2015,02,15,09,49,8.60
2015,02,15,09,50,8.60
2015,02,15,09,51,8.60
2015,02,15,09,52,8.60
2015,02,15,09,53,8.60
2015,02,15,09,54,8.60
2015,02,15,09,55,8.60
2015,02,15,09,56,8.60
2015,02,15,09,57,8.60
2015,02,15,09,58,8.60
2015,02,15,09,59,8.60
2015,02,15,10,00,8.60
2015,02,15,10,01,8.60
2015,02,15,10,02,8.60
2015,02,15,10,03,8.70
2015,02,15,10,04,8.70
2015,02,15,10,05,8.70
2015,02,15,10,06,8.70
2015,02,15,10,07,8.70
2015,02,15,10,08,8.70
2015,02,15,10,09,8.70
2015,02,15,10,10,8.70
2015,02,15,10,11,8.70
2015,02,15,10,12,8.70
2015,02,15,10,13,8.70
2015,02,15,10,14,8.70
2015,02,15,10,15,8.70
2015,02,15,10,16,8.70
2015,02,15,10,17,8.70
2015,02,15,10,18,8.70
2015,02,15,10,19,8.70
2015,02,15,10,20,8.60
2015,02,15,10,21,8.60
2015,02,15,10,22,8.60
2015,02,15,10,23,8.60
2015,02,15,10,24,8.70
2015,02,15,10,25,8.70
2015,02,15,10,26,8.70
2015,02,15,10,27,8.70
2015,02,15,10,28,8.70
2015,02,15,10,29,8.70
2015,02,15,10,30,8.70
2015,02,15,10,31,8.70
2015,02,15,10,32,8.60
2015,02,15,10,33,8.60
2015,02,15,10,34,8.50
2015,02,15,10,35,8.50
2015,02,15,10,36,8.50
2015,02,15,10,37,8.40
2015,02,15,10,38,8.40
2015,02,15,10,39,8.40
2015,02,15,10,40,8.40
2015,02,15,10,41,8.40
2015,02,15,10,42,8.40
2015,02,15,10,43,8.40
2015,02,15,10,44,8.40
2015,02,15,10,45,8.50
2015,02,15,10,46,8.50
2015,02,15,10,47,8.40
2015,02,15,10,48,8.40
2015,02,15,10,49,8.40
2015,02,15,10,50,8.40
2015,02,15,10,51,8.40
2015,02,15,10,52,8.30
2015,02,15,10,53,8.30
2015,02,15,10,54,8.30
2015,02,15,10,55,8.30
2015,02,15,10,56,8.30
2015,02,15,10,57,8.30
2015,02,15,10,58,8.30
2015,02,15,10,59,8.30
2015,02,15,11,00,8.30
2015,02,15,11,01,8.30
2015,02,15,11,02,8.30
2015,02,15,11,03,8.30
2015,02,15,11,04,8.30
2015,02,15,11,05,8.30
2015,02,15,11,06,8.20
2015,02,15,11,07,8.20
2015,02,15,11,08,8.20
2015,02,15,11,09,8.10
2015,02,15,11,10,8.10
2015,02,15,11,11,8.20
2015,02,15,11,12,8.20
2015,02,15,11,13,8.20
2015,02,15,11,14,8.20
2015,02,15,11,15,8.20
2015,02,15,11,16,8.20
2015,02,15,11,17,8.20
2015,02,15,11,18,8.20
2015,02,15,11,19,8.20
2015,02,15,11,20,8.20
2015,02,15,11,21,8.20
2015,02,15,11,22,8.20
2015,02,15,11,23,8.20
2015,02,15,11,24,8.20
2015,02,15,11,25,8.20
2015,02,15,11,26,8.20
2015,02,15,11,27,8.30
2015,02,15,11,28,8.30
2015,02,15,11,29,8.30
2015,02,15,11,30,8.30
2015,02,15,11,31,8.30
2015,02,15,11,32,8.30
2015,02,15,11,33,8.30
2015,02,15,11,34,8.30
2015,02,15,11,35,8.30
2015,02,15,11,36,8.30
2015,02,15,11,37,8.30
2015,02,15,11,38,8.30
2015,02,15,11,39,8.30
2015,02,15,11,40,8.40
2015,02,15,11,41,8.40
2015,02,15,11,42,8.40
2015,02,15,11,43,8.40
2015,02,15,11,44,8.40
2015,02,15,11,45,8.40
2015,02,15,11,46,8.40
2015,02,15,11,47,8.40
2015,02,15,11,48,8.50
2015,02,15,11,49,8.50
2015,02,15,11,50,8.60
2015,02,15,11,51,8.60
2015,02,15,11,52,8.60
2015,02,15,11,53,8.70
2015,02,15,11,54,8.70
2015,02,15,11,55,8.70
2015,02,15,11,56,8.80
2015,02,15,11,57,8.80
2015,02,15,11,58,8.90
2015,02,15,11,59,8.90
2015,02,15,12,00,8.90
2015,02,15,12,01,9.00
2015,02,15,12,02,9.00
2015,02,15,12,03,9.10
2015,02,15,12,04,9.10
2015,02,15,12,05,9.20
2015,02,15,12,06,9.20
2015,02,15,12,07,9.30
2015,02,15,12,08,9.30
2015,02,15,12,09,9.40
2015,02,15,12,10,9.40
2015,02,15,12,11,9.50
2015,02,15,12,12,9.60
2015,02,15,12,13,9.60
2015,02,15,12,14,9.60
2015,02,15,12,15,9.60
2015,02,15,12,16,9.60
2015,02,15,12,17,9.70
2015,02,15,12,18,9.70
2015,02,15,12,19,9.70
2015,02,15,12,20,9.70
2015,02,15,12,21,9.80
2015,02,15,12,22,9.80
2015,02,15,12,23,9.80
2015,02,15,12,24,9.80
2015,02,15,12,25,9.80
2015,02,15,12,26,9.80
2015,02,15,12,27,9.80
2015,02,15,12,28,9.90
2015,02,15,12,29,10.00
2015,02,15,12,30,10.00
2015,02,15,12,31,10.10
2015,02,15,12,32,10.10
2015,02,15,12,33,10.10
2015,02,15,12,34,10.20
2015,02,15,12,35,10.20
2015,02,15,12,36,10.20
2015,02,15,12,37,10.30
2015,02,15,12,38,10.30
2015,02,15,12,39,10.30
2015,02,15,12,40,10.30
2015,02,15,12,41,10.20
2015,02,15,12,42,10.30
2015,02,15,12,43,10.30
2015,02,15,12,44,10.30
2015,02,15,12,45,10.30
2015,02,15,12,46,10.30
2015,02,15,12,47,10.30
2015,02,15,12,48,10.30
2015,02,15,12,49,10.40
2015,02,15,12,50,10.40
2015,02,15,12,51,10.40
2015,02,15,12,52,10.40
2015,02,15,12,53,10.40
2015,02,15,12,54,10.50
2015,02,15,12,55,10.50
2015,02,15,12,56,10.50
2015,02,15,12,57,10.60
2015,02,15,12,58,10.60
2015,02,15,12,59,10.60
2015,02,15,13,00,10.70
2015,02,15,13,01,10.70
2015,02,15,13,02,10.70
2015,02,15,13,03,10.70
2015,02,15,13,04,10.70
2015,02,15,13,05,10.70
2015,02,15,13,06,10.70
2015,02,15,13,07,10.70
2015,02,15,13,08,10.70
2015,02,15,13,09,10.70
2015,02,15,13,10,10.80
2015,02,15,13,11,10.80
2015,02,15,13,12,10.80
2015,02,15,13,13,10.80
2015,02,15,13,14,10.90
2015,02,15,13,15,10.90
2015,02,15,13,16,10.90
2015,02,15,13,17,10.90
2015,02,15,13,18,10.90
2015,02,15,13,19,11.00
2015,02,15,13,20,11.00
2015,02,15,13,21,11.00
2015,02,15,13,22,11.10
2015,02,15,13,23,11.10
2015,02,15,13,24,11.10
2015,02,15,13,25,11.10
2015,02,15,13,26,11.10
2015,02,15,13,27,11.10
2015,02,15,13,28,11.10
2015,02,15,13,29,11.00
2015,02,15,13,30,11.10
2015,02,15,13,31,11.10
2015,02,15,13,32,11.10
2015,02,15,13,33,11.10
2015,02,15,13,34,11.20
2015,02,15,13,35,11.20
2015,02,15,13,36,11.20
2015,02,15,13,37,11.20
2015,02,15,13,38,11.20
2015,02,15,13,39,11.20
2015,02,15,13,40,11.20
2015,02,15,13,41,11.20
2015,02,15,13,42,11.20
2015,02,15,13,43,11.20
2015,02,15,13,44,11.30
2015,02,15,13,45,11.30
2015,02,15,13,46,11.40
2015,02,15,13,47,11.40
2015,02,15,13,48,11.40
2015,02,15,13,49,11.40
2015,02,15,13,50,11.40
2015,02,15,13,51,11.40
2015,02,15,13,52,11.40
2015,02,15,13,53,11.40
2015,02,15,13,54,11.50
2015,02,15,13,55,11.50
2015,02,15,13,56,11.60
2015,02,15,13,57,11.60
2015,02,15,13,58,11.60
2015,02,15,13,59,11.60
2015,02,15,14,00,11.60
2015,02,15,14,01,11.60
2015,02,15,14,02,11.70
2015,02,15,14,03,11.70
2015,02,15,14,04,11.70
2015,02,15,14,05,11.70
2015,02,15,14,06,11.80
2015,02,15,14,07,11.80
2015,02,15,14,08,11.80
2015,02,15,14,09,11.90
2015,02,15,14,10,11.90
2015,02,15,14,11,12.00
2015,02,15,14,12,12.00
2015,02,15,14,13,12.00
2015,02,15,14,14,12.00
2015,02,15,14,15,11.90
2015,02,15,14,16,11.90
2015,02,15,14,17,11.90
2015,02,15,14,18,11.90
2015,02,15,14,19,11.90
2015,02,15,14,20,12.00
2015,02,15,14,21,12.00
2015,02,15,14,22,12.00
2015,02,15,14,23,12.10
2015,02,15,14,24,12.10
2015,02,15,14,25,12.10
2015,02,15,14,26,12.20
2015,02,15,14,27,12.20
2015,02,15,14,28,12.20
2015,02,15,14,29,12.20
2015,02,15,14,30,12.20
2015,02,15,14,31,12.20
2015,02,15,14,32,12.20
2015,02,15,14,33,12.20
2015,02,15,14,34,12.20
2015,02,15,14,35,12.20
2015,02,15,14,36,12.10
2015,02,15,14,37,12.10
2015,02,15,14,38,12.10
2015,02,15,14,39,12.10
2015,02,15,14,40,12.00
2015,02,15,14,41,12.00
2015,02,15,14,42,11.90
2015,02,15,14,43,11.90
2015,02,15,14,44,11.90
2015,02,15,14,45,12.00
2015,02,15,14,46,12.00
2015,02,15,14,47,12.00
2015,02,15,14,48,12.00
2015,02,15,14,49,12.00
2015,02,15,14,50,12.10
2015,02,15,14,51,12.10
2015,02,15,14,52,12.10
2015,02,15,14,53,12.10
2015,02,15,14,54,12.20
2015,02,15,14,55,12.20
2015,02,15,14,56,12.20
2015,02,15,14,57,12.20
2015,02,15,14,58,12.20
2015,02,15,14,59,12.20
2015,02,15,15,00,12.20
2015,02,15,15,01,12.20
2015,02,15,15,02,12.20
2015,02,15,15,03,12.10
2015,02,15,15,04,12.10
2015,02,15,15,05,12.10
2015,02,15,15,06,12.10
2015,02,15,15,07,12.10
2015,02,15,15,08,12.10
2015,02,15,15,09,12.10
2015,02,15,15,10,12.10
2015,02,15,15,11,12.10
2015,02,15,15,12,12.10
2015,02,15,15,13,12.10
2015,02,15,15,14,12.10
2015,02,15,15,15,12.10
2015,02,15,15,16,12.10
2015,02,15,15,17,12.00
2015,02,15,15,18,12.00
2015,02,15,15,19,12.00
2015,02,15,15,20,12.00
2015,02,15,15,21,12.00
2015,02,15,15,22,12.00
2015,02,15,15,23,12.00
2015,02,15,15,24,12.00
2015,02,15,15,25,12.00
2015,02,15,15,26,12.00
2015,02,15,15,27,12.00
2015,02,15,15,28,12.10
2015,02,15,15,29,12.10
2015,02,15,15,30,12.10
2015,02,15,15,31,12.10
2015,02,15,15,32,12.10
2015,02,15,15,33,12.10
2015,02,15,15,34,12.10
2015,02,15,15,35,12.00
2015,02,15,15,36,12.00
2015,02,15,15,37,12.00
2015,02,15,15,38,12.00
2015,02,15,15,39,12.00
2015,02,15,15,40,12.10
2015,02,15,15,41,12.10
2015,02,15,15,42,12.10
2015,02,15,15,43,12.10
2015,02,15,15,44,12.10
2015,02,15,15,45,12.10
2015,02,15,15,46,12.10
2015,02,15,15,47,12.10
2015,02,15,15,48,12.10
2015,02,15,15,49,12.10
2015,02,15,15,50,12.10
2015,02,15,15,51,12.10
2015,02,15,15,52,12.10
2015,02,15,15,53,12.10
2015,02,15,15,54,12.10
2015,02,15,15,55,12.00
2015,02,15,15,56,12.00
2015,02,15,15,57,11.90
2015,02,15,15,58,11.90
2015,02,15,15,59,11.90
2015,02,15,16,00,11.90
2015,02,15,16,01,11.90
2015,02,15,16,02,11.90
2015,02,15,16,03,11.90
2015,02,15,16,04,11.90
2015,02,15,16,05,11.90
2015,02,15,16,06,11.90
2015,02,15,16,07,11.90
2015,02,15,16,08,11.80
2015,02,15,16,09,11.80
2015,02,15,16,10,11.80
2015,02,15,16,11,11.80
2015,02,15,16,12,11.80
2015,02,15,16,13,11.80
2015,02,15,16,14,11.80
2015,02,15,16,15,11.70
2015,02,15,16,16,11.70
2015,02,15,16,17,11.70
2015,02,15,16,18,11.70
2015,02,15,16,19,11.70
2015,02,15,16,20,11.60
2015,02,15,16,21,11.60
2015,02,15,16,22,11.60
2015,02,15,16,23,11.60
2015,02,15,16,24,11.60
2015,02,15,16,25,11.60
2015,02,15,16,26,11.60
2015,02,15,16,27,11.60
2015,02,15,16,28,11.50
2015,02,15,16,29,11.50
2015,02,15,16,30,11.50
2015,02,15,16,31,11.50
2015,02,15,16,32,11.40
2015,02,15,16,33,11.40
2015,02,15,16,34,11.40
2015,02,15,16,35,11.40
2015,02,15,16,36,11.30
2015,02,15,16,37,11.30
2015,02,15,16,38,11.30
2015,02,15,16,39,11.30
2015,02,15,16,40,11.30
2015,02,15,16,41,11.30
2015,02,15,16,42,11.20
2015,02,15,16,43,11.20
2015,02,15,16,44,11.20
2015,02,15,16,45,11.20
2015,02,15,16,46,11.10
2015,02,15,16,47,11.10
2015,02,15,16,48,11.10
2015,02,15,16,49,11.10
2015,02,15,16,50,11.00
2015,02,15,16,51,11.00
2015,02,15,16,52,11.00
2015,02,15,16,53,10.90
2015,02,15,16,54,10.90
2015,02,15,16,55,10.90
2015,02,15,16,56,10.80
2015,02,15,16,57,10.80
2015,02,15,16,58,10.80
2015,02,15,16,59,10.70
2015,02,15,17,00,10.70
2015,02,15,17,01,10.70
2015,02,15,17,02,10.70
2015,02,15,17,03,10.60
2015,02,15,17,04,10.60
2015,02,15,17,05,10.50
2015,02,15,17,06,10.50
2015,02,15,17,07,10.50
2015,02,15,17,08,10.40
2015,02,15,17,09,10.40
2015,02,15,17,10,10.40
2015,02,15,17,11,10.30
2015,02,15,17,12,10.30
2015,02,15,17,13,10.30
2015,02,15,17,14,10.20
2015,02,15,17,15,10.20
2015,02,15,17,16,10.20
2015,02,15,17,17,10.10
2015,02,15,17,18,10.10
2015,02,15,17,19,10.10
2015,02,15,17,20,10.00
2015,02,15,17,21,10.00
2015,02,15,17,22,9.90
2015,02,15,17,23,9.90
2015,02,15,17,24,9.90
2015,02,15,17,25,9.80
2015,02,15,17,26,9.80
2015,02,15,17,27,9.80
2015,02,15,17,28,9.80
2015,02,15,17,29,9.70
2015,02,15,17,30,9.70
2015,02,15,17,31,9.70
2015,02,15,17,32,9.60
2015,02,15,17,33,9.60
2015,02,15,17,34,9.50
2015,02,15,17,35,9.50
2015,02,15,17,36,9.40
2015,02,15,17,37,9.40
2015,02,15,17,38,9.30
2015,02,15,17,39,9.30
2015,02,15,17,40,9.30
2015,02,15,17,41,9.20
2015,02,15,17,42,9.20
2015,02,15,17,43,9.10
2015,02,15,17,44,9.10
2015,02,15,17,45,9.00
2015,02,15,17,46,9.00
2015,02,15,17,47,8.90
2015,02,15,17,48,8.80
2015,02,15,17,49,8.80
2015,02,15,17,50,8.80
2015,02,15,17,51,8.70
2015,02,15,17,52,8.70
2015,02,15,17,53,8.60